When you browse on this site, cookies collect data to enhance your experience and personalize the content and advertising you see.
Visit our Privacy Policy to learn more. By continuing to use the site, you agree to this use of cookies and data.
  • In United Kingdom
  • List of Countries
  • For 7 days
  • Water Temperature
  • Satellite Maps
  • Weather Map
  • Weather Widgets
  • user-avatar
    Login

    Hourly Weather Albany

    Today, 18 February, Monday

    Time Temperature Precipitation Wind Pressure Humidity
    00:00 +15°C° 0 mm 2 mps 761 mmHg 85%
    01:00 +14°C° 0 mm 2 mps 760 mmHg 86%
    02:00 +14°C° 0 mm 2 mps 760 mmHg 86%
    03:00 +14°C° 0 mm 2 mps 760 mmHg 87%
    04:00 +14°C° 0 mm 2 mps 760 mmHg 87%
    05:00 +14°C° 0 mm 2 mps 760 mmHg 88%
    06:00 +15°C° 0 mm 2 mps 760 mmHg 81%
    07:00 +17°C° 0 mm 2 mps 760 mmHg 74%
    08:00 +18°C° 0 mm 3 mps 761 mmHg 66%
    09:00 +19°C° 0 mm 4 mps 760 mmHg 62%
    10:00 +21°C° 0 mm 4 mps 760 mmHg 57%
    11:00 +22°C° 0 mm 4 mps 760 mmHg 53%
    12:00 +22°C° 0 mm 4 mps 760 mmHg 52%
    13:00 +23°C° 0 mm 5 mps 759 mmHg 51%
    14:00 +23°C° 0 mm 5 mps 759 mmHg 49%
    15:00 +23°C° 0 mm 5 mps 759 mmHg 53%
    16:00 +22°C° 0 mm 5 mps 759 mmHg 56%
    17:00 +21°C° 0 mm 6 mps 759 mmHg 60%
    18:00 +19°C° 0 mm 5 mps 759 mmHg 67%
    19:00 +17°C° 0 mm 5 mps 759 mmHg 73%
    20:00 +15°C° 0 mm 5 mps 759 mmHg 80%
    21:00 +15°C° 0 mm 5 mps 759 mmHg 82%
    22:00 +15°C° 0 mm 5 mps 759 mmHg 84%
    23:00 +15°C° 0 mm 4 mps 760 mmHg 86%

    Tomorrow, 19 February, Tuesday

    Time Temperature Precipitation Wind Pressure Humidity
    00:00 +15°C° 0 mm 4 mps 759 mmHg 87%
    01:00 +14°C° 0 mm 4 mps 759 mmHg 89%
    02:00 +14°C° 0 mm 4 mps 759 mmHg 90%
    03:00 +14°C° 0 mm 4 mps 759 mmHg 90%
    04:00 +14°C° 0 mm 3 mps 759 mmHg 90%
    05:00 +16°C° 0 mm 3 mps 759 mmHg 90%
    06:00 +17°C° 0 mm 3 mps 759 mmHg 84%
    07:00 +18°C° 0 mm 3 mps 759 mmHg 79%
    08:00 +19°C° 0 mm 3 mps 760 mmHg 73%
    09:00 +21°C° 0 mm 4 mps 759 mmHg 66%
    10:00 +22°C° 0 mm 4 mps 759 mmHg 60%
    11:00 +25°C° 0 mm 5 mps 759 mmHg 54%
    12:00 +25°C° 0 mm 5 mps 759 mmHg 55%
    13:00 +24°C° 0 mm 6 mps 758 mmHg 55%
    14:00 +24°C° 0 mm 6 mps 758 mmHg 56%
    15:00 +23°C° 0 mm 6 mps 758 mmHg 59%
    16:00 +22°C° 0 mm 6 mps 758 mmHg 63%
    17:00 +21°C° 0 mm 6 mps 758 mmHg 66%
    18:00 +20°C° 0 mm 6 mps 758 mmHg 72%
    19:00 +19°C° 0 mm 6 mps 759 mmHg 78%
    20:00 +16°C° 0 mm 6 mps 759 mmHg 84%
    21:00 +16°C° 0 mm 6 mps 759 mmHg 84%
    22:00 +16°C° 0 mm 5 mps 759 mmHg 85%
    23:00 +16°C° 0 mm 5 mps 759 mmHg 85%

    Day after tomorrow, 20 February, Wednesday

    Time Temperature Precipitation Wind Pressure Humidity
    00:00 +16°C° 0 mm 5 mps 759 mmHg 86%
    01:00 +16°C° 0 mm 5 mps 759 mmHg 88%
    02:00 +16°C° 0 mm 5 mps 758 mmHg 89%
    03:00 +16°C° 0 mm 5 mps 758 mmHg 88%
    04:00 +16°C° 0 mm 5 mps 758 mmHg 87%
    05:00 +17°C° 0 mm 5 mps 758 mmHg 86%
    06:00 +17°C° 0 mm 5 mps 758 mmHg 84%
    07:00 +19°C° 0 mm 6 mps 758 mmHg 81%
    08:00 +20°C° 0 mm 6 mps 757 mmHg 79%
    09:00 +21°C° 0 mm 6 mps 757 mmHg 76%
    10:00 +22°C° 0 mm 6 mps 757 mmHg 73%
    11:00 +23°C° 0 mm 6 mps 756 mmHg 70%
    12:00 +26°C° 0 mm 6 mps 756 mmHg 63%
    13:00 +27°C° 0 mm 6 mps 755 mmHg 56%
    14:00 +29°C° 0 mm 5 mps 754 mmHg 48%
    15:00 +28°C° 0 mm 6 mps 754 mmHg 53%
    16:00 +27°C° 0 mm 6 mps 753 mmHg 58%
    17:00 +26°C° 0 mm 7 mps 753 mmHg 63%
    18:00 +23°C° 0 mm 6 mps 753 mmHg 71%
    19:00 +21°C° 0 mm 6 mps 753 mmHg 79%
    20:00 +20°C° 0 mm 5 mps 753 mmHg 87%
    21:00 +20°C° 0 mm 5 mps 753 mmHg 89%
    22:00 +19°C° 0 mm 4 mps 753 mmHg 91%
    23:00 +19°C° 0 mm 3 mps 753 mmHg 93%

    21 February, Thursday

    Time Temperature Precipitation Wind Pressure Humidity
    00:00 +19°C° 0 mm 3 mps 753 mmHg 94%
    01:00 +19°C° 0 mm 2 mps 752 mmHg 95%
    02:00 +18°C° 0 mm 2 mps 752 mmHg 96%
    03:00 +19°C° 0 mm 3 mps 752 mmHg 96%
    04:00 +19°C° 0 mm 3 mps 752 mmHg 95%
    05:00 +19°C° 0 mm 4 mps 752 mmHg 95%
    06:00 +19°C° 0 mm 4 mps 753 mmHg 92%
    07:00 +20°C° 0 mm 5 mps 753 mmHg 89%
    08:00 +20°C° 0 mm 5 mps 754 mmHg 87%
    09:00 +20°C° 0 mm 5 mps 754 mmHg 83%
    10:00 +21°C° 0 mm 5 mps 755 mmHg 80%
    11:00 +21°C° 0 mm 5 mps 755 mmHg 76%
    12:00 +22°C° 0 mm 5 mps 755 mmHg 70%
    13:00 +25°C° 0 mm 5 mps 755 mmHg 64%
    14:00 +26°C° 0 mm 6 mps 755 mmHg 57%
    15:00 +25°C° 0 mm 5 mps 755 mmHg 59%
    16:00 +23°C° 0 mm 5 mps 755 mmHg 61%
    17:00 +23°C° 0 mm 5 mps 755 mmHg 63%
    18:00 +21°C° 0 mm 5 mps 755 mmHg 72%
    19:00 +19°C° 0 mm 4 mps 756 mmHg 80%
    20:00 +18°C° 0 mm 4 mps 757 mmHg 88%
    21:00 +17°C° 0 mm 3 mps 757 mmHg 88%
    22:00 +17°C° 0 mm 3 mps 757 mmHg 88%
    23:00 +16°C° 0 mm 2 mps 757 mmHg 88%

    22 February, Friday

    Time Temperature Precipitation Wind Pressure Humidity
    00:00 +16°C° 0 mm 2 mps 757 mmHg 89%
    01:00 +16°C° 0 mm 1 mps 757 mmHg 89%
    02:00 +15°C° 0 mm 1 mps 757 mmHg 89%
    03:00 +15°C° 0 mm 1 mps 757 mmHg 89%
    04:00 +15°C° 0 mm 1 mps 756 mmHg 90%
    05:00 +15°C° 0 mm 1 mps 756 mmHg 91%
    06:00 +18°C° 0 mm 1 mps 757 mmHg 82%
    07:00 +19°C° 0 mm 1 mps 757 mmHg 74%
    08:00 +21°C° 0 mm 1 mps 757 mmHg 66%
    09:00 +24°C° 0 mm 1 mps 757 mmHg 57%
    10:00 +26°C° 0 mm 2 mps 757 mmHg 48%
    11:00 +29°C° 0 mm 2 mps 757 mmHg 39%
    12:00 +30°C° 0 mm 3 mps 756 mmHg 39%
    13:00 +30°C° 0 mm 4 mps 755 mmHg 39%
    14:00 +32°C° 0 mm 5 mps 755 mmHg 39%
    15:00 +29°C° 0 mm 5 mps 755 mmHg 45%
    16:00 +28°C° 0 mm 5 mps 754 mmHg 51%
    17:00 +26°C° 0 mm 5 mps 754 mmHg 57%
    18:00 +23°C° 0 mm 4 mps 755 mmHg 67%
    19:00 +21°C° 0 mm 3 mps 755 mmHg 77%
    20:00 +19°C° 0 mm 2 mps 756 mmHg 88%
    21:00 +19°C° 0 mm 2 mps 756 mmHg 90%
    22:00 +19°C° 0 mm 1 mps 756 mmHg 92%
    23:00 +19°C° 0 mm 1 mps 756 mmHg 94%

    23 February, Saturday

    Time Temperature Precipitation Wind Pressure Humidity
    00:00 +16°C° 0 mm 0 mps 756 mmHg 94%
    01:00 +16°C° 0 mm 0 mps 756 mmHg 95%
    02:00 +16°C° 0 mm 0 mps 755 mmHg 95%
    03:00 +16°C° 0 mm 0 mps 755 mmHg 95%
    04:00 +18°C° 0 mm 1 mps 755 mmHg 96%
    05:00 +16°C° 0 mm 2 mps 755 mmHg 96%
    06:00 +18°C° 0 mm 2 mps 755 mmHg 88%
    07:00 +19°C° 0 mm 2 mps 756 mmHg 81%
    08:00 +20°C° 0 mm 3 mps 756 mmHg 73%
    09:00 +24°C° 0 mm 3 mps 756 mmHg 62%
    10:00 +26°C° 0 mm 3 mps 756 mmHg 51%
    11:00 +29°C° 0 mm 3 mps 756 mmHg 39%
    12:00 +29°C° 0 mm 4 mps 756 mmHg 39%
    13:00 +30°C° 0 mm 5 mps 756 mmHg 38%
    14:00 +32°C° 0 mm 5 mps 755 mmHg 37%
    15:00 +29°C° 0 mm 6 mps 755 mmHg 46%
    16:00 +28°C° 0 mm 6 mps 756 mmHg 55%
    17:00 +26°C° 0 mm 7 mps 756 mmHg 65%
    18:00 +24°C° 0 mm 6 mps 756 mmHg 71%
    19:00 +22°C° 0 mm 5 mps 757 mmHg 77%
    20:00 +21°C° 0 mm 4 mps 757 mmHg 83%
    21:00 +20°C° 0 mm 3 mps 758 mmHg 83%
    22:00 +20°C° 0 mm 2 mps 758 mmHg 83%
    23:00 +21°C° 0 mm 1 mps 758 mmHg 84%
    Show more